sat.trackr.live / text

‹ back to catalog

STARLINK-34803

NORAD 65059 · 2025-165D

PAYLOAD ACTIVE UNKNOWN

§ Identity

Operator
Country
US
Launch date
2025-07-31
Launch site
AFWTR
Launch vehicle
Mass (kg)
RCS (m²)

Purposes: comms

External: N2YO · Heavens-Above · Gunter

§ Orbital elements

Epoch: 2026-05-25T04:44:20.497344Z

Period
95.64 min
Inclination
97.4451°
Eccentricity
0.0001749
Mean motion
15.05658587 rev/d
Perigee alt
548.3 km
Apogee alt
550.7 km
Semi-major
6,927.6 km
B*
3.0627e-4
RAAN
222.2891°
Arg perigee
145.5571°
Mean anomaly
214.5770°
Rev number
4,630

§ Raw data

STARLINK-348031 65059U 25165D   26145.19745946  .00004364  00000+0  30627-3 0  99942 65059  97.4451 222.2891 0001749 145.5571 214.5770 15.05658587 46301

JSON: /api/v1/satellites/65059 · /tle

For live sub-satellite position, see the globe view (requires WebGL).

§ Visibility from observer

Set your observer location to see the next 7 days of passes ≥ 10°. The values pass through the URL so the page stays shareable.

No JS? Fill the form by hand. The geolocation button needs JavaScript.